This demonstration page uses our WeatherBlox Daily Observations layout. Learn more.

39.92423, -83.80882

Hourly Observations for September 3, 2018

Temp ( °F °C ) Dew Point ( °F °C ) Humidity (%) Winds ( mph kmh ) Pressure ( in mb ) Visibility ( mi km ) Precip ( " mm )
12:56 am 00:56 Clear 74 23.3 72 22.2 94 94 S 5 7 30.22 1023 10 16.0934 0 0
1:56 am 01:56 Clear 73 22.8 72 22.2 96 96 SSW 3 6 30.21 1023 10 16.0934 0 0
2:56 am 02:56 Clear 72 22.2 71 21.7 97 97 S 3 6 30.21 1023 10 16.0934 0 0
3:56 am 03:56 Clear 72 22.2 71 21.7 97 97 S 3 6 30.21 1023 10 16.0934 0 0
4:56 am 04:56 Clear 71 21.7 70 21.1 96 96 SSE 5 7 30.22 1023 10 16.0934 0 0
5:56 am 05:56 Clear 70 21.1 70 21.1 100 100 SSW 3 6 30.22 1024 10 16.0934 0 0
6:56 am 06:56 Clear 68 20 68 20 100 100 SSE 3 6 30.24 1024 10 16.0934 0 0
7:56 am 07:56 Sunny 70 21.1 70 21.1 100 100 Calm 30.26 1025 10 16.0934 0 0
8:56 am 08:56 Sunny 77 25 73 22.8 88 88 S 3 6 30.26 1025 10 16.0934 0 0
9:56 am 09:56 Sunny 81 27.2 73 22.8 77 77 SW 9 15 30.27 1025 10 16.0934 0 0
10:56 am 10:56 Sunny 85 29.4 74 23.3 70 70 WSW 6 9 30.27 1025 10 16.0934 0 0
11:56 am 11:56 Sunny 87 30.6 73 22.8 63 63 SW 7 11 30.27 1025 10 16.0934 0 0
12:56 pm 12:56 Mostly Sunny 88 31.1 72 22.2 59 59 VRB 6 9 30.26 1025 10 16.0934 0 0
1:56 pm 13:56 Sunny 89 31.7 71 21.7 55 55 SW 6 9 30.25 1024 10 16.0934 0 0
2:56 pm 14:56 Sunny 90 32.2 73 22.8 58 58 S 6 9 30.23 1024 10 16.0934 0 0
3:56 pm 15:56 Sunny 90 32.2 72 22.2 56 56 S 8 13 30.2 1023 10 16.0934 0 0
4:56 pm 16:56 Sunny 90 32.2 71 21.7 54 54 VRB 5 7 30.19 1022 10 16.0934 0 0
5:56 pm 17:56 Sunny 89 31.7 72 22.2 57 57 SSW 6 9 30.2 1023 10 16.0934 0 0
6:56 pm 18:56 Sunny 87 30.6 73 22.8 63 63 S 3 6 30.2 1023 10 16.0934 0 0
7:56 pm 19:56 Sunny 83 28.3 73 22.8 72 72 S 3 6 30.22 1023 10 16.0934 0 0
8:56 pm 20:56 Clear 81 27.2 72 22.2 74 74 S 5 7 30.24 1024 10 16.0934 0 0
9:56 pm 21:56 Clear 80 26.7 72 22.2 76 76 S 8 13 30.25 1025 10 16.0934 0 0
10:56 pm 22:56 Clear 74 23.3 73 22.8 97 97 Calm 30.26 1025 10 16.0934 0 0
11:56 pm 23:56 Clear 73 22.8 72 22.2 96 96 Calm 30.26 1025 10 16.0934 0 0

Powered by AerisWeather